Other Public Products
Issued by NWS Grand Forks, ND

Home | Current Version | Previous Version | Graphics & Text | Print | Product List | Glossary On
Versions: 1 2 3 4 5 6 7 8 9 10 11 12 13 14 15 16 17 18 19 20 21 22 23 24 25 26 27 28 29 30 31 32 33 34 35 36 37 38 39 40 41 42 43 44 45 46 47 48 49 50
000
FPUS83 KFGF 161431
OPUFGF
PRAIRIE TO PINES WEATHER ROUNDUP
NATIONAL WEATHER SERVICE EASTERN NORTH DAKOTA/GRAND FORKS ND
900 AM CDT WED APR 16 2014

 **SATELLITE DATA USED TO AUGMENT SKY COVER AT AUTOMATED STATIONS**
 *****  WEATHER ACROSS EASTERN NORTH DAKOTA  *****

CITY           SKY/WX    TMP DP  RH WIND       PRES   REMARKS
GRAND FORKS    CLOUDY    30  11  45 E17       30.06R WCI  18
GRAND FORKS AF CLOUDY    30  11  45 E16       30.10R WCI  18
GRAND CITY NWS   N/A     32 N/A N/A NE9         N/A  WCI  24
BUXTON           N/A     30  21  68 NE12        N/A  WCI  20
DEVILS LAKE    CLOUDY    27  10  50 E18G24    30.08R WCI  13
FARGO          CLOUDY    28  22  78 NE20      30.01R WCI  15
WAHPETON ARPT  CLOUDY    30  25  80 E17G28    29.95R WCI  18
$$

 *****  WEATHER ACROSS CENTRAL AND WESTERN NORTH DAKOTA  *****

CITY           SKY/WX    TMP DP  RH WIND       PRES   REMARKS
JAMESTOWN      CLOUDY    26  23  88 NE22G28   29.98R WCI  12
BISMARCK       CLOUDY    28  23  81 E20       29.98R WCI  15
MINOT          CLOUDY    23  18  81 NE13      30.07R WCI  11
MINOT AFB      LGT SNOW  23  19  86 E15       30.08R WCI  10
GARRISON         N/A     24  20  84 E16G24    30.02R WCI  11
WILLISTON      CLOUDY    25  20  81 E15       30.05R WCI  13
DICKINSON      CLOUDY    25  19  78 NE14      29.92R WCI  13
HETTINGER      PTSUNNY   27  17  66 NE15G24   29.90R WCI  15
$$

 *****  OTHER OBSERVATIONS NORTHEAST NORTH DAKOTA  *****

CITY           SKY/WX    TMP DP  RH WIND       PRES   REMARKS
WALHALLA         N/A     27   9  46 NE14      30.19R WCI  15
LANGDON        PTSUNNY   27   9  46 E20       30.11S WCI  13
CAVALIER       FAIR      28  10  47 NE13G22   30.18R WCI  18
GRAFTON        FAIR      28  10  47 NE18      30.14R WCI  16
CANDO          CLOUDY    25  12  58 E13G21    30.12R WCI  13
FORT TOTTEN    NOT AVBL
ROLLA          PTSUNNY   21  12  68 NE16      30.13R WCI   7
RUGBY          MIX PCPN  23  18  80 NE25      30.09R WCI   7
 ***** THE ABOVE OBSERVATIONS ARE NON NWS ARE NOT QUALITY
        CONTROLLED AND MAY MIS-REPORT RAIN FOR SNOW...
$$

 *****  OTHER OBSERVATIONS SOUTHEAST NORTH DAKOTA *****

CITY           SKY/WX    TMP DP  RH WIND       PRES   REMARKS
COOPERSTOWN    CLOUDY    25  21  86 NE17      30.04R WCI  11
VALLEY CITY    NOT AVBL
OAKES          CLOUDY    28  25  86 NE21G30   29.93R WCI  15
GWINNER        CLOUDY    32  28  86 NE18G26   29.95R WCI  20
SHEYENNE NWR     N/A     29  28  94 E13       29.95S WCI  19
BUFFALO          N/A     26  22  83 NE20        N/A  WCI  13
WYNDMERE       NOT AVBL
 ***** THE ABOVE OBSERVATIONS ARE NON NWS ARE NOT QUALITY
       CONTROLLED AND MAY MIS-REPORT RAIN FOR SNOW...
$$

  *****  WEATHER ACROSS NORTHERN MINNESOTA  *****

CITY           SKY/WX    TMP DP  RH WIND       PRES   REMARKS
FLAG ISLAND    SUNNY     23   1  39 E7        30.21R WCI  15
WARROAD        SUNNY     21  10  63 NE9       30.20R WCI  11
ROSEAU         SUNNY     25  10  54 E13       30.19R WCI  13
HALLOCK        CLOUDY    28   9  43 E13       30.17R WCI  18
THF RVR FALLS  PTSUNNY   28   7  40 E18       30.11S WCI  16
HALSTAD          N/A     30  19  64 E16         N/A  WCI  19
FOSSTON        CLOUDY    28   9  43 E12G18    30.07S WCI  18
BAUDETTE       PTSUNNY   25   7  46 E9        30.18R WCI  15
WASKISH        PTSUNNY   28   9  43 E10       30.14S WCI  19
CROOKSTON      PTSUNNY   30  10  43 E15       30.10S WCI  19
$$
  *****  WEATHER ACROSS CENTRAL AND WEST MINNESOTA  *****

CITY           SKY/WX    TMP DP  RH WIND       PRES   REMARKS
BEMIDJI        CLOUDY    29   9  42 E13       30.07S WCI  19
PARK RAPIDS    LGT SNOW  25  21  85 E12G18    30.02S FOG     WCI  14
WADENA         LGT SNOW  25  21  86 E13G22    29.98S WCI  13
DETROIT LAKES  MIX PCPN  28  23  80 E16G22    30.00R WCI  17
MOORHEAD       CLOUDY    28  25  86 NE14      30.02R WCI  17
FERGUS FALLS   MIX PCPN  27  21  80 E18G26    29.93S WCI  13
ELBOW LAKE     LGT SNOW  27  25  91 E18G26    29.90F VSB 3/4 WCI  14
MORRIS MN      LGT SNOW  30  25  80 MISG      29.85F
STAPLES        LGT SNOW  25  23  93 E10       30.00S WCI  15
WHEATON        LGT SNOW  30  28  93 NE15G22   29.91S WCI  19
$$
  *****  WEATHER ELSEWHERE ACROSS MINNESOTA  *****

CITY           SKY/WX    TMP DP  RH WIND       PRES   REMARKS
DULUTH         CLOUDY    27  12  53 E10       30.13R WCI  17
INTRNTL FALLS  PTSUNNY   24   5  44 E9        30.19R WCI  14
ELY            CLOUDY    25  10  54 E6        30.17S WCI  18
CLOQUET        LGT SNOW  25  19  80 E10       30.12S WCI  15
BRAINERD       LGT SNOW  30  21  69 E15G21    30.03F WCI  19
HIBBING        CLOUDY    28  10  46 E7        30.13R WCI  21
ALEXANDRIA     SNOW      27  25  93 E22G29    29.90F VSB 1/2 WCI  12
SAINT CLOUD    LGT SNOW  28  25  86 E13       29.95F WCI  18
MINNEAPOLIS    CLOUDY    34  22  61 E22G31    29.97S WCI  22
$$

  *****  WEATHER ACROSS SOUTH DAKOTA  *****

CITY           SKY/WX    TMP DP  RH WIND       PRES   REMARKS
SIOUX FALLS    LGT RAIN  46  27  47 S22G31    29.61S
BROOKINGS      NOT AVBL
WATERTOWN      LGT SNOW  29  23  78 E21G32    29.75R WCI  16
HURON          LGT SNOW  31  28  89 NE17      29.72R VSB 1   WCI  19
SISSETON         N/A     28  26  92 E17       29.87R WCI  16
ABERDEEN       LGT SNOW  28  25  88 NE18G29   29.86R FOG     WCI  15
MITCHELL       CLOUDY    41  34  76 NE17      29.60R
PIERRE         LGT SNOW  30  28  92 N17       29.78R FOG     WCI  18
MOBRIDGE       CLOUDY    30  23  75 NE21      29.85R WCI  17
RAPID CITY     CLOUDY    41  34  76 NW33G40   29.79R
$$

  *****  SOME WEATHER IN NEARBY STATES *****

CITY           SKY/WX    TMP DP  RH WIND       PRES   REMARKS
GLASGOW MT     CLOUDY    29  22  75 E9        30.03R WCI  20
GREAT FALLS MT CLOUDY    32  31  96 E7        29.95R
CHEYENNE WY    SUNNY     35  25  66 NW22G30   29.87R WCI  23
SCOTTSBLUFF NE CLOUDY    43  30  60 NW28G40   29.87R
OMAHA NE       CLOUDY    48  29  47 S24G30    29.75S
DES MOINES IA  CLOUDY    48  27  44 S22G30    29.90F
DAVENPORT IA   MOSUNNY   38  25  59 S21G28    30.15F
CHICAGO IL     PTSUNNY   38  21  50 S15       30.30R
EAU CLAIRE WI  CLOUDY    31  23  72 E17G24    30.06F WCI  19
LA CROSSE WI   CLOUDY    38  20  48 SE16G25   30.05F
$$

  *****  SOME NATIONAL WEATHER *****

CITY           SKY/WX    TMP DP  RH WIND       PRES   REMARKS
LA GUARDIA NY  MOSUNNY   35  15  44 N17G26    30.31R WCI  25
RALEIGH NC     SUNNY     39  22  50 N10G20    30.38R
ATLANTA GA     SUNNY     43  27  53 E14       30.27R
NEW ORLEANS LA SUNNY     52  36  54 E12       30.24R
OKLAHOMA CITY  PTSUNNY   51  28  41 S32G39    29.97R
ALBUQUERQUE NM SUNNY     47   9  21 SE7       29.92R
SALT LAKE CITY PTSUNNY   46  20  35 N6        30.00R
LOS ANGELES CA CLOUDY    59  51  75 SE6       29.86R
BOISE ID       PTCLDY    36  21  54 CALM      30.06R
SEATTLE WA     LGT RAIN  48  45  89 S9        30.07R
$$

*** WEATHER ACROSS MANITOBA...SASKATCHEWAN AND ONTARIO ***
                ***ONTARIO***

CITY           SKY/WX    TMP DP  RH WIND       PRES   REMARKS
GERALDTON      SUNNY     18   1  49 W5        30.22R WCI  11
THUNDER BAY    PTSUNNY   21   9  58 S3        30.29R
SIOUX LOOKOUT  MOSUNNY   14   1  57 CALM      30.23S
TORONTO        MOSUNNY   28  14  54 W3        30.45R
BIG TROUT LK   SUNNY      0  -6  78 W8        30.25R WCI -15
PICKLE LAKE    MOSUNNY   10  -6  48 W5        30.24R WCI   2
DRYDEN         SUNNY     16   1  53 E3        30.22R
KENORA         PTSUNNY   19   1  45 NE6       30.22R WCI  11
$$
                *** MANITOBA***

CITY           SKY/WX    TMP DP  RH WIND       PRES   REMARKS
BRANDON        PTSUNNY   19   7  58 NE17      30.23R WCI   4
DAUPHIN        SUNNY     16   5  62 NE7       30.32R WCI   6
ISLAND LAKE    MOSUNNY    5  -2  72 N2        30.36R
PILOT MOUND      N/A     23   9  54 NE14        N/A  WCI  11
THE PAS        SUNNY      3  -6  66 N5        30.40R WCI  -6
THOMPSON       MOSUNNY    3  -6  66 N6        30.42R WCI  -8
WINNIPEG       MOSUNNY   21   9  58 NE7       30.26R WCI  13
LYNN LAKE      SUNNY      1  -6  71 W5        30.42S WCI  -8
GILLAM         PTSUNNY   -4  -9  77 W12       30.37R WCI -22
$$
                ***SASKATCHEWAN***

CITY           SKY/WX    TMP DP  RH WIND       PRES   REMARKS
ESTEVAN        LGT SNOW  19  18  93 E20       30.12R DRFTSNOWWCI   4
KINDERSLEY     CLOUDY    21  19  93 E15       30.10R WCI   8
LLOYDMINSTER   MOSUNNY   21  19  93 E9        30.14R WCI  11
PRINCE ALBERT  SUNNY     14   3  62 E10       30.29R WCI   1
REGINA         LGT SNOW  21  18  86 E16G22    30.16R DRFTSNOWWCI   7
YORKTON        MOSUNNY   19   7  58 E12       30.24R WCI   7



USA.gov is the U.S. government's official web portal to all federal, state and local government web resources and services.